Flag for Austria Weather past 2 weeks in Bruck an der Leitha, Lower Austria, Austria

Now
66 °F

Sprinkles. Overcast.


Feels Like: 66 °F
Forecast: 67 / 76 °F
Wind: 5 mph from North

Location: Wien / Schwechat-Flughafen

Current Time: Jul 31, 2014 at 12:33:15 AM

Latest Report: Jul 30, 2014 at 11:00 PM


Visibility: 4 mi

Pressure: 29.72 "Hg

Humidity: 98%

Dew point: 65 °F

Location of Bruck an der LeithaLocation

Historic Weather in Bruck an der Leitha — Graph

°F

Bruck an der Leitha temperature yesterday

Maximum temperature yesterday: 80 °F (at 2:00 PM)
Minimum temperature yesterday: 65 °F (at 6:00 AM)
Average temperature yesterday: 70 °F

Past Weeks' High & Low Weather Summary

 TemperatureHumidityPressure
High89 °F (Jul 20, 4:00 PM)98% (Jul 29, 6:00 AM)30.12 "Hg (Jul 29, 6:00 AM)
Low58 °F (Jul 26, 5:00 AM)29% (Jul 17, 4:00 PM)29.69 "Hg (Jul 21, 4:00 PM)
Average72 °F71%29.90 "Hg
* Reported Jul 15 11:00 PM — Jul 30 11:00 PM, Bruck an der Leitha, Weather by CustomWeather, © 2014

Note: Actual official high and low records may vary slightly from our data, if they occured in-between our weather recording intervals... More about our weather records

Advertising

Bruck an der Leitha weather history for previous 24 hours

 ConditionsComfort  
Time TempWeatherWind HumidityBarometerVisibility
11:00 PM
Jul 30
66 °FSprinkles. Overcast.5 mph98%29.72 "Hg4 mi
10:00 PM66 °FThundershowers. Low clouds.5 mph95%29.76 "Hg5 mi
9:00 PM66 °FLow clouds.9 mph96%29.74 "Hg2 mi
8:00 PM69 °FThundershowers. Overcast.N/A96%29.72 "Hg2 mi
7:00 PM70 °FThundershowers. Overcast.N/A91%29.72 "Hg5 mi
6:00 PM72 °FRain showers. Overcast.N/A83%29.73 "Hg10 mi
5:00 PM72 °FOvercast.N/A84%29.72 "Hg10 mi
4:00 PM72 °FOvercast.N/A83%29.72 "Hg9 mi
3:00 PM71 °FOvercast.3 mph83%29.74 "Hg13 mi
2:00 PM80 °FOvercast.5 mph63%29.72 "Hg15 mi
1:00 PM78 °FOvercast.5 mph63%29.74 "Hg16 mi
12:00 PM78 °FOvercast.5 mph65%29.75 "Hg14 mi
11:00 AM76 °FOvercast.6 mph68%29.74 "Hg16 mi
10:00 AM75 °FOvercast.3 mph70%29.74 "Hg14 mi
9:00 AM71 °FLow clouds.N/A81%29.75 "Hg18 mi
8:00 AM69 °FLow clouds.3 mph84%29.74 "Hg19 mi
7:00 AM67 °FOvercast.5 mph90%29.73 "Hg11 mi
6:00 AM65 °FOvercast.6 mph93%29.72 "Hg9 mi
5:00 AM65 °FPassing clouds.5 mph92%29.71 "Hg15 mi
4:00 AM66 °FPassing clouds.5 mph90%29.72 "Hg14 mi
3:00 AM67 °FPassing clouds.6 mph90%29.72 "Hg16 mi
2:00 AM67 °FPassing clouds.6 mph88%29.72 "Hg22 mi
1:00 AM68 °FPassing clouds.6 mph88%29.72 "Hg19 mi
12:00 AM70 °FPassing clouds.6 mph87%29.72 "Hg17 mi
Weather by CustomWeather, © 2014

See weather overviewHow to use our weather pages